Zurück zum Katalog

COSMOS 2251 DEB

AktivLEO
NORAD 35434·DEBRIS·🇷🇺 Russia

Gestartet Jun 16, 1993 von Plesetsk Cosmodrome

Loading…

Nächste Überflüge (nächste 24 Stunden)

TLE

AlterndSource: Space-Track

Epoche: Sep 12, 2026, 05:04 UTC

1 35434U 93036AKC 26255.21140002  .00000826  00000-0  34032-3 0  9991
2 35434  74.0383  79.6777 0086178  84.9987 276.0991 14.26407322900165

Verfolge COSMOS 2251 DEB in Echtzeit mit AllMySat

Download on the App Store